Cloud_Cover
0 0 0 0 0 0 0 0 0 0 0 0 0 0 0 0 2 0 0 0 0 0 0 0 4 2 3 5 0 0 100 100 50 100 45 85 1 0 0 0 0 0 0 0 0
0 0 0 0 0 0 0 0 0 0 0 0 0 0 0 5 0 0 0 0 0 0 0 0 0 0 0 4 2 89 100 99 63 1 75 14 13 4 1 0 0 0 0 0 0
4 5 4 0 0 0 0 0 0 0 0 0 0 0 0 6 0 0 0 0 0 0 0 0 0 0 0 4 4 92 100 42 2 3 25 38 67 46 44 2 0 0 0 0 0
0 0 0 0 0 0 0 0 0 0 0 0 0 0 1 0 0 0 0 0 0 0 0 0 0 0 1 20 5 89 67 2 2 0 3 98 62 8 5 0 0 0 0 0 0
4 1 0 0 0 0 0 0 0 0 0 0 0 0 2 0 0 0 0 0 0 0 0 0 0 3 74 100 3 96 6 0 0 0 5 3 22 66 5 0 0 0 0 0 0
0 1 0 0 0 0 0 0 0 0 0 0 0 36 0 0 0 0 0 0 0 0 0 0 0 4 99 14 66 48 10 4 0 1 0 2 25 1 2 0 0 0 0 0 0
0 0 0 0 0 0 0 0 0 0 0 0 0 0 0 0 0 0 0 0 0 0 0 0 0 2 5 5 60 3 0 0 0 2 1 2 99 100 2 0 0 0 0 0 0
0 0 0 0 0 0 0 0 0 0 0 0 1 0 0 0 0 0 0 0 0 0 0 0 0 2 1 58 0 1 4 100 98 0 0 0 100 100 2 0 0 0 0 0 0
0 0 0 0 0 0 0 0 0 0 0 0 8 0 0 0 0 0 0 0 0 0 0 0 0 1 0 2 21 4 100 100 100 0 0 0 98 96 0 0 0 0 0 0 0
0 0 0 0 0 0 0 0 0 0 16 0 0 0 0 0 0 0 0 0 0 0 0 0 0 0 0 29 64 85 100 100 1 0 0 0 0 71 4 57 2 0 0 0 0
0 0 0 0 0 0 4 0 0 0 0 0 0 0 0 0 0 0 0 0 0 0 0 0 0 0 5 5 26 100 100 36 2 0 0 0 97 99 99 5 100 0 0 0 0
0 0 0 0 0 0 8 0 0 0 0 0 0 0 0 0 0 0 0 0 0 0 0 0 0 0 1 8 4 0 0 0 5 0 0 35 2 96 12 6 99 22 0 0 0
0 0 0 0 4 0 0 0 0 0 0 0 0 0 0 0 0 0 0 0 0 0 0 0 0 0 0 0 0 0 4 5 4 2 4 1 2 99 52 7 66 70 0 0 0
0 0 0 26 9 0 0 0 0 0 0 0 0 0 0 0 0 0 0 0 0 2 4 0 0 0 0 0 0 0 4 23 32 84 60 12 24 100 70 5 93 100 0 0 0
5 2 0 33 0 0 0 0 0 0 0 0 0 0 0 0 0 0 0 0 0 2 4 4 0 5 3 0 0 0 1 5 83 100 99 63 13 99 58 5 45 99 4 0 0
5 11 50 0 0 0 0 0 0 0 0 0 0 0 0 0 0 0 0 0 0 0 5 4 10 82 82 97 100 6 86 8 24 100 100 100 100 100 95 96 27 8 1 0 0
5 7 31 0 0 0 0 0 0 0 0 0 0 0 0 0 0 0 0 0 0 0 0 5 36 81 49 81 40 5 5 1 58 100 100 96 100 100 100 100 16 0 0 0 0
5 36 4 0 0 0 0 0 0 0 0 0 5 0 0 0 0 0 0 0 0 0 0 0 0 3 4 11 13 5 3 3 90 100 100 99 100 100 100 97 82 27 1 0 4
24 5 5 2 0 3 1 3 2 3 0 9 8 5 5 0 0 0 0 0 0 0 0 0 0 0 0 4 1 3 0 66 6 100 100 100 97 100 100 60 5 5 4 4 80
1 0 0 0 0 5 5 35 4 10 99 100 99 4 5 12 5 5 5 5 6 5 5 1 6 5 5 5 5 1 4 22 12 64 100 100 81 100 100 5 7 5 0 0 2
67 5 3 5 81 82 58 99 81 56 100 100 100 6 15 5 83 47 33 67 43 8 5 30 43 11 68 38 44 68 93 100 100 100 100 100 100 100 97 92 5 5 2 0 0
100 54 20 5 99 100 100 97 100 81 98 100 100 13 6 6 99 5 61 62 18 40 42 80 19 6 24 5 3 0 4 100 100 99 98 7 100 100 60 58 5 3 5 1 0
100 100 100 100 100 100 100 100 100 100 100 100 100 100 98 88 93 41 49 11 100 100 100 5 5 31 5 3 1 1 3 5 11 93 94 100 100 69 86 100 44 10 100 4 0
100 100 88 100 100 100 100 100 100 100 100 100 100 100 100 100 100 100 100 100 100 100 7 5 5 5 18 14 87 4 7 32 18 5 5 90 100 100 95 100 22 70 64 4 0
100 100 100 100 100 100 100 100 100 100 100 100 100 100 100 100 100 100 100 100 100 100 5 5 5 5 5 7 60 100 100 5 7 18 18 90 100 100 100 84 43 5 7 16 0
99 100 100 100 100 100 100 100 100 100 100 100 100 100 100 100 100 100 100 100 100 90 52 89 99 19 5 1 5 100 40 50 2 0 90 98 85 99 100 100 100 46 16 31 2
100 100 100 100 88 100 100 100 100 100 100 100 100 100 100 100 100 100 100 100 100 100 22 5 5 5 6 6 65 6 19 87 87 66 50 100 22 34 100 100 100 100 100 64 4